Date String (YYYY-MM-DD hh:mm:ss) UTC,Instrument flags,absolute air pressure of the measurement (hPa),sample flow rate (lpm),inlet stack bypass flow (lpm),air temperature of the measurement (°C),ambient temperature measured by the external sensor (°C),aerosol sample conditioner tube jacket temperature (°C),OPC LED temperature (°C),internal box temperature (°C),relative humidity of the measurement (%),span deviation,mass concentration of particles derived from Lorenz-Mie calculation of OPC scattering (μg/m³),mass concentration of particles derived from Lorenz-Mie calculation of OPC scattering (μg/m³),mass concentration of particles derived from Lorenz-Mie calculation of OPC scattering (μg/m³)
DateTimeUTC,F1_M11,P_M11,Q1_M11,Q2_M11,T1_M11,T2_M11,T3_M11,T4_M11,T5_M11,U1_M11,ZSPAN_M11,X2_M11,X0_M11,X1_M11
2023-10-05 03:00:00,SystemResetWarning,0833.2,5.00,000.00,028.6,027.4,000.0,037.0,030.3,11.7,0000.0,0001.39,0001.98,0001.29
2023-10-05 03:01:00,SystemResetWarning,0833.4,5.00,000.00,028.6,027.4,000.0,037.0,030.4,11.8,0000.0,0001.39,0001.98,0001.29
2023-10-05 03:02:00,SystemResetWarning,0833.3,5.00,000.00,028.7,027.4,000.0,037.0,030.4,11.8,0000.0,0001.38,0001.95,0001.29
2023-10-05 03:03:00,SystemResetWarning,0833.3,5.00,000.00,028.7,027.5,000.0,037.1,030.4,11.8,0000.0,0001.38,0001.91,0001.30
2023-10-05 03:04:00,SystemResetWarning,0833.2,5.00,000.00,028.7,027.5,000.0,037.1,030.4,11.8,0000.0,0001.37,0001.89,0001.30
2023-10-05 03:05:00,SystemResetWarning,0832.8,5.00,000.00,028.7,027.5,000.0,037.1,030.5,11.8,0000.0,0001.36,0001.87,0001.29
2023-10-05 03:06:00,SystemResetWarning,0832.9,5.00,000.00,028.8,027.5,000.0,037.1,030.5,11.8,0000.0,0001.34,0001.82,0001.29
2023-10-05 03:07:00,SystemResetWarning,0832.8,5.00,000.00,028.8,027.6,000.0,037.1,030.5,11.8,0000.0,0001.34,0001.80,0001.29
2023-10-05 03:08:00,SystemResetWarning,0832.8,5.00,000.00,028.8,027.6,000.0,037.2,030.5,11.7,0000.0,0001.33,0001.80,0001.28
2023-10-05 03:09:00,SystemResetWarning,0832.8,5.00,000.00,028.8,027.6,000.0,037.2,030.5,11.7,0000.0,0001.34,0001.83,0001.28
2023-10-05 03:10:00,SystemResetWarning,0832.8,5.00,000.00,028.8,027.6,000.0,037.2,030.5,11.6,0000.0,0001.37,0001.86,0001.30
2023-10-05 03:11:00,SystemResetWarning,0832.8,5.00,000.00,028.8,027.6,000.0,037.2,030.5,11.6,0000.0,0001.41,0001.95,0001.30
2023-10-05 03:12:00,SystemResetWarning,0832.8,5.00,000.00,028.9,027.6,000.0,037.2,030.5,11.7,0000.0,0001.42,0001.97,0001.30
2023-10-05 03:13:00,SystemResetWarning,0832.8,5.00,000.00,028.9,027.7,000.0,037.2,030.6,11.6,0000.0,0001.42,0001.99,0001.30
2023-10-05 03:14:00,SystemResetWarning,0832.8,4.99,000.00,028.9,027.7,000.0,037.2,030.6,11.5,0000.0,0001.45,0002.13,0001.30
2023-10-05 03:15:00,SystemResetWarning,0832.8,4.99,000.00,028.9,027.7,000.0,037.3,030.6,11.5,0000.0,0001.47,0002.18,0001.31
2023-10-05 03:16:00,SystemResetWarning,0832.8,5.00,000.00,028.9,027.7,000.0,037.3,030.6,11.5,0000.0,0001.52,0002.36,0001.31
2023-10-05 03:17:00,SystemResetWarning,0832.8,5.00,000.00,028.9,027.6,000.0,037.3,030.6,11.5,0000.0,0001.56,0002.69,0001.32
2023-10-05 03:18:00,SystemResetWarning,0832.8,5.00,000.00,028.9,025.8,000.0,037.2,030.5,11.6,0000.0,0001.60,0004.24,0001.32
2023-10-05 03:19:00,SystemResetWarning,0832.8,5.00,000.00,028.8,024.4,000.0,037.2,030.3,11.6,0000.0,0001.60,0004.25,0001.32
2023-10-05 03:20:00,SystemResetWarning,0832.9,5.01,000.00,028.7,024.3,000.0,037.1,030.1,11.8,0000.0,0001.59,0004.26,0001.31
2023-10-05 03:21:00,SystemResetWarning,0832.8,5.00,000.00,028.6,024.6,000.0,037.1,029.9,11.9,0000.0,0001.59,0004.25,0001.31
2023-10-05 03:22:00,SystemResetWarning,0833.0,4.99,000.00,028.5,025.0,000.0,037.1,029.9,12.0,0000.0,0001.55,0004.22,0001.30
2023-10-05 03:23:00,SystemResetWarning,0833.2,5.00,000.00,028.5,025.4,000.0,037.1,030.0,12.3,0000.0,0001.54,0004.20,0001.30
2023-10-05 03:24:00,SystemResetWarning,0833.2,5.01,000.00,028.4,025.7,000.0,037.1,030.0,12.3,0000.0,0001.53,0004.19,0001.29
2023-10-05 03:25:00,SystemResetWarning,0833.3,5.00,000.00,028.4,026.0,000.0,037.0,030.0,12.3,0000.0,0001.54,0004.12,0001.28
2023-10-05 03:26:00,SystemResetWarning,0833.1,5.00,000.00,028.4,026.2,000.0,037.0,030.1,12.3,0000.0,0001.51,0004.03,0001.27
2023-10-05 03:27:00,SystemResetWarning,0832.9,5.00,000.00,028.4,026.4,000.0,037.0,030.1,12.3,0000.0,0001.50,0003.99,0001.27
2023-10-05 03:28:00,SystemResetWarning,0833.2,5.00,000.00,028.4,026.6,000.0,037.0,030.1,12.2,0000.0,0001.48,0003.75,0001.27
2023-10-05 03:29:00,SystemResetWarning,0833.0,5.00,000.00,028.4,026.7,000.0,037.0,030.1,12.1,0000.0,0001.47,0004.15,0001.28
2023-10-05 03:30:00,SystemResetWarning,0833.1,4.99,000.00,028.4,026.8,000.0,037.0,030.1,12.3,0000.0,0001.45,0004.54,0001.26
2023-10-05 03:31:00,SystemResetWarning,0833.1,5.00,000.00,028.5,026.9,000.0,037.0,030.2,12.3,0000.0,0001.43,0004.78,0001.25
2023-10-05 03:32:00,SystemResetWarning,0833.0,5.00,000.00,028.5,027.0,000.0,037.0,030.2,12.2,0000.0,0001.42,0005.04,0001.23
2023-10-05 03:33:00,SystemResetWarning,0832.9,5.00,000.00,028.5,027.0,000.0,037.0,030.2,12.0,0000.0,0001.40,0005.09,0001.22
2023-10-05 03:34:00,SystemResetWarning,0833.0,5.00,000.00,028.5,027.1,000.0,037.0,030.2,12.0,0000.0,0001.38,0005.09,0001.20
2023-10-05 03:35:00,SystemResetWarning,0833.0,5.00,000.00,028.5,027.1,000.0,037.0,030.2,12.0,0000.0,0001.37,0005.08,0001.20
2023-10-05 03:36:00,SystemResetWarning,0832.9,5.00,000.00,028.6,027.1,000.0,037.0,030.2,12.1,0000.0,0001.34,0005.05,0001.19
2023-10-05 03:37:00,SystemResetWarning,0833.1,5.00,000.00,028.6,027.2,000.0,037.0,030.2,12.1,0000.0,0001.32,0005.02,0001.18
2023-10-05 03:38:00,SystemResetWarning,0833.0,5.00,000.00,028.6,027.2,000.0,037.0,030.2,12.1,0000.0,0001.29,0004.96,0001.17
2023-10-05 03:39:00,SystemResetWarning,0833.0,5.00,000.00,028.6,027.2,000.0,037.0,030.3,12.0,0000.0,0001.24,0004.84,0001.15
2023-10-05 03:40:00,SystemResetWarning,0833.2,4.99,000.00,028.6,027.3,000.0,037.0,030.3,12.2,0000.0,0001.19,0003.69,0001.12
2023-10-05 03:41:00,SystemResetWarning,0833.1,5.00,000.00,028.6,027.3,000.0,037.1,030.3,12.2,0000.0,0001.18,0002.31,0001.11
2023-10-05 03:42:00,SystemResetWarning,0833.1,5.00,000.00,028.6,027.3,000.0,037.1,030.3,12.2,0000.0,0001.19,0002.17,0001.11
2023-10-05 03:43:00,SystemResetWarning,0833.1,5.00,000.00,028.6,027.3,000.0,037.1,030.3,12.2,0000.0,0001.17,0001.74,0001.11
2023-10-05 03:44:00,SystemResetWarning,0833.1,5.00,000.00,028.7,027.3,000.0,037.1,030.3,12.0,0000.0,0001.18,0002.54,0001.11
2023-10-05 03:45:00,SystemResetWarning,0833.2,5.00,000.00,028.7,027.4,000.0,037.1,030.3,11.9,0000.0,0001.17,0002.63,0001.11
2023-10-05 03:46:00,SystemResetWarning,0833.2,5.00,000.00,028.7,027.4,000.0,037.1,030.4,11.9,0000.0,0001.16,0002.61,0001.10
2023-10-05 03:47:00,SystemResetWarning,0833.1,5.01,000.00,028.7,027.4,000.0,037.1,030.4,11.8,0000.0,0001.17,0002.64,0001.10
2023-10-05 03:48:00,SystemResetWarning,0833.2,5.01,000.00,028.7,027.4,000.0,037.1,030.4,11.9,0000.0,0001.17,0002.63,0001.10
2023-10-05 03:49:00,SystemResetWarning,0833.2,5.00,000.00,028.8,027.5,000.0,037.2,030.4,11.8,0000.0,0001.17,0002.64,0001.10
2023-10-05 03:50:00,SystemResetWarning,0833.1,4.99,000.00,028.8,027.5,000.0,037.2,030.4,11.9,0000.0,0001.17,0002.64,0001.09
2023-10-05 03:51:00,SystemResetWarning,0833.1,5.00,000.00,028.8,027.5,000.0,037.2,030.4,11.8,0000.0,0001.18,0002.68,0001.10
2023-10-05 03:52:00,SystemResetWarning,0833.1,5.00,000.00,028.8,027.5,000.0,037.2,030.5,11.9,0000.0,0001.16,0002.66,0001.09
2023-10-05 03:53:00,SystemResetWarning,0833.1,4.99,000.00,028.8,027.6,000.0,037.2,030.5,11.8,0000.0,0001.14,0002.62,0001.07
2023-10-05 03:54:00,SystemResetWarning,0833.2,4.99,000.00,028.8,027.6,000.0,037.2,030.5,11.7,0000.0,0001.15,0002.67,0001.07
2023-10-05 03:55:00,SystemResetWarning,0833.2,5.00,000.00,028.9,027.6,000.0,037.2,030.5,11.9,0000.0,0001.15,0002.14,0001.07
2023-10-05 03:56:00,SystemResetWarning,0833.2,5.00,000.00,028.9,027.6,000.0,037.3,030.5,11.8,0000.0,0001.14,0001.74,0001.07
2023-10-05 03:57:00,SystemResetWarning,0833.2,4.99,000.00,028.9,027.6,000.0,037.3,030.5,11.9,0000.0,0001.15,0001.74,0001.08
2023-10-05 03:58:00,SystemResetWarning,0833.2,5.00,000.00,028.9,027.6,000.0,037.3,030.5,12.0,0000.0,0001.15,0001.72,0001.08
2023-10-05 03:59:00,SystemResetWarning,0833.2,5.00,000.00,028.9,027.6,000.0,037.3,030.5,11.9,0000.0,0001.14,0001.70,0001.08
